Погода в Пятигорске

Россия / Ставропольский край     44°02′21″N   43°04′15″E
темп.,
°C
ветер,
м/с
пор.,
м/с
влажн.,
%
обл.,
%
осадки,
мм/ч
давл.,
гПа
погр.,
м
28 сентября, вт
вт2800:00+10юв1177100 0.0 101750
03:00+10юв118288 0.0 101759
06:00+10вюв1183100 0.0 101753
09:00+10вюв2380100 0.0 1017362
12:00+9св2390100 0.6 1019354
15:00+9вюв1292100 2.8 1020212
18:00+9вюв2391100 0.7 1021185
21:00+8юв2592100 1.1 1022277
29 сентября, ср
ср2900:00+8юв259154 0.1 1022236
03:00+8вюв249287 0.1 1022146
06:00+8вюв259385 0.0 1022271
09:00+9вюв478999 0.0 1022655
12:00+10в5787100 0.2 1022770
15:00+8в4790100 0.4 1022836
18:00+8вюв4886100 0.1 1024683
21:00+7в4888100 0.3 1025700
30 сентября, чт
чт3000:00+6в4886100 0.1 1025702
03:00+6в3784100 0.1 1026618
06:00+5вюв3789100 0.0 1027652
09:00+5в4891100 0.0 1027633
12:00+5в4894100 0.1 1027756
15:00+5вюв4992100 0.1 1027697
18:00+4вюв4993100 0.1 1027566
21:00+5вюв31094100 0.1 1028525
1 октября, пт
пт100:00+5вюв41097100 0.1 1027612
03:00+5вюв51297100 0.3 1026760
06:00+5вюв51396100 0.5 1026824
09:00+5вюв51397100 1.3 1027953
12:00+5вюв51295100 0.6 1027978
15:00+6в41197100 1.4 1027919
18:00+6в3999100 1.6 1027869
21:00+6в3998100 3.5 1028701
2 октября, сб
сб200:00+6вюв3898100 0.8 1028861
03:00+6в4798100 1.3 1028757
06:00+6вюв3798100 0.3 1027705
09:00+6в3799100 0.5 1028683
12:00+7вюв4896100 0.1 1027614
15:00+7вюв4991100 0.1 1026632
18:00+7вюв499280 0.0 1026545
21:00+8вюв41193100 0.0 1026645